• En España
  • Lista de países
  • Para 7 días
  • Temperatura del agua
  • Mapa Satelital
  • El tiempo en el mapa
  • Informadores
  • user-avatar
    Iniciar sesión

    Tiempo cada hora Natitingou

    Hoy, 17 Octubre, Miércoles

    Tiempo Temperatura Precipitaciones Viento Presión Humedad
    00:00 +26°C° 0 mm 2 mps 718 mmHg 74%
    01:00 +26°C° 0 mm 2 mps 718 mmHg 76%
    02:00 +25°C° 0 mm 2 mps 717 mmHg 78%
    03:00 +25°C° 0 mm 1 mps 717 mmHg 80%
    04:00 +25°C° 0 mm 1 mps 717 mmHg 81%
    05:00 +24°C° 0 mm 1 mps 717 mmHg 81%
    06:00 +24°C° 0 mm 1 mps 717 mmHg 82%
    07:00 +26°C° 0 mm 2 mps 718 mmHg 73%
    08:00 +29°C° 0 mm 2 mps 718 mmHg 65%
    09:00 +31°C° 0 mm 2 mps 719 mmHg 56%
    10:00 +33°C° 0 mm 1 mps 719 mmHg 50%
    11:00 +36°C° 0 mm 1 mps 718 mmHg 43%
    12:00 +39°C° 0 mm 1 mps 718 mmHg 37%
    13:00 +37°C° 0 mm 1 mps 717 mmHg 36%
    14:00 +37°C° 0 mm 1 mps 717 mmHg 35%
    15:00 +36°C° 0 mm 1 mps 716 mmHg 35%
    16:00 +34°C° 0 mm 1 mps 716 mmHg 39%
    17:00 +33°C° 0 mm 1 mps 716 mmHg 42%
    18:00 +31°C° 0 mm 1 mps 716 mmHg 46%
    19:00 +31°C° 0 mm 1 mps 716 mmHg 50%
    20:00 +30°C° 0 mm 2 mps 717 mmHg 53%
    21:00 +29°C° 0 mm 2 mps 717 mmHg 57%
    22:00 +29°C° 0 mm 2 mps 717 mmHg 61%
    23:00 +28°C° 0 mm 2 mps 717 mmHg 65%

    Mañana, 18 Octubre, Jueves

    Tiempo Temperatura Precipitaciones Viento Presión Humedad
    00:00 +27°C° 0 mm 2 mps 717 mmHg 69%
    01:00 +27°C° 0 mm 2 mps 717 mmHg 72%
    02:00 +26°C° 0 mm 2 mps 716 mmHg 75%
    03:00 +25°C° 0 mm 2 mps 716 mmHg 79%
    04:00 +25°C° 0 mm 2 mps 716 mmHg 80%
    05:00 +25°C° 0 mm 2 mps 716 mmHg 82%
    06:00 +24°C° 0 mm 2 mps 716 mmHg 84%
    07:00 +26°C° 0 mm 2 mps 717 mmHg 77%
    08:00 +28°C° 0 mm 3 mps 717 mmHg 71%
    09:00 +30°C° 0 mm 3 mps 718 mmHg 65%
    10:00 +33°C° 0 mm 3 mps 717 mmHg 58%
    11:00 +34°C° 0 mm 3 mps 717 mmHg 52%
    12:00 +36°C° 0 mm 2 mps 716 mmHg 46%
    13:00 +36°C° 0 mm 2 mps 716 mmHg 43%
    14:00 +36°C° 0 mm 1 mps 715 mmHg 41%
    15:00 +35°C° 0 mm 0 mps 715 mmHg 38%
    16:00 +35°C° 0 mm 1 mps 715 mmHg 43%
    17:00 +33°C° 0 mm 1 mps 715 mmHg 48%
    18:00 +31°C° 0 mm 1 mps 715 mmHg 53%
    19:00 +30°C° 0.1 mm 2 mps 715 mmHg 56%
    20:00 +30°C° 0.1 mm 2 mps 716 mmHg 60%
    21:00 +29°C° 0.1 mm 3 mps 716 mmHg 64%
    22:00 +28°C° 0.1 mm 2 mps 716 mmHg 68%
    23:00 +27°C° 0.1 mm 2 mps 716 mmHg 72%

    Pasado mañana, 19 Octubre, Viernes

    Tiempo Temperatura Precipitaciones Viento Presión Humedad
    00:00 +26°C° 0.1 mm 2 mps 716 mmHg 76%
    01:00 +26°C° 0.3 mm 2 mps 716 mmHg 78%
    02:00 +26°C° 0.3 mm 2 mps 715 mmHg 81%
    03:00 +25°C° 0.3 mm 2 mps 715 mmHg 83%
    04:00 +25°C° 0 mm 2 mps 715 mmHg 84%
    05:00 +24°C° 0 mm 2 mps 716 mmHg 85%
    06:00 +24°C° 0 mm 2 mps 716 mmHg 87%
    07:00 +26°C° 0 mm 2 mps 716 mmHg 80%
    08:00 +28°C° 0 mm 3 mps 717 mmHg 73%
    09:00 +29°C° 0 mm 3 mps 718 mmHg 67%
    10:00 +31°C° 0 mm 3 mps 717 mmHg 61%
    11:00 +34°C° 0 mm 3 mps 717 mmHg 55%
    12:00 +36°C° 0 mm 2 mps 716 mmHg 48%
    13:00 +36°C° 0 mm 2 mps 716 mmHg 47%
    14:00 +35°C° 0 mm 1 mps 715 mmHg 46%
    15:00 +36°C° 0 mm 1 mps 715 mmHg 44%
    16:00 +34°C° 0 mm 1 mps 715 mmHg 49%
    17:00 +32°C° 0 mm 1 mps 715 mmHg 54%
    18:00 +31°C° 0 mm 2 mps 715 mmHg 58%
    19:00 +30°C° 0 mm 2 mps 715 mmHg 62%
    20:00 +29°C° 0 mm 2 mps 716 mmHg 66%
    21:00 +28°C° 0 mm 2 mps 716 mmHg 70%
    22:00 +27°C° 0.3 mm 2 mps 716 mmHg 72%
    23:00 +27°C° 0.3 mm 2 mps 716 mmHg 75%

    20 Octubre, Sábado

    Tiempo Temperatura Precipitaciones Viento Presión Humedad
    00:00 +26°C° 0.3 mm 2 mps 716 mmHg 77%
    01:00 +26°C° 0 mm 1 mps 715 mmHg 78%
    02:00 +26°C° 0 mm 1 mps 715 mmHg 78%
    03:00 +25°C° 0 mm 1 mps 715 mmHg 79%
    04:00 +25°C° 0 mm 1 mps 715 mmHg 79%
    05:00 +25°C° 0 mm 1 mps 715 mmHg 79%
    06:00 +25°C° 0 mm 1 mps 716 mmHg 80%
    07:00 +27°C° 0 mm 1 mps 716 mmHg 72%
    08:00 +29°C° 0 mm 2 mps 717 mmHg 64%
    09:00 +31°C° 0 mm 2 mps 718 mmHg 55%
    10:00 +34°C° 0 mm 1 mps 718 mmHg 50%
    11:00 +36°C° 0 mm 1 mps 717 mmHg 44%
    12:00 +39°C° 0 mm 1 mps 717 mmHg 39%
    13:00 +37°C° 0 mm 1 mps 716 mmHg 39%
    14:00 +36°C° 0 mm 1 mps 715 mmHg 40%
    15:00 +35°C° 0 mm 1 mps 714 mmHg 41%
    16:00 +34°C° 0 mm 1 mps 715 mmHg 45%
    17:00 +32°C° 0 mm 1 mps 715 mmHg 49%
    18:00 +31°C° 0 mm 1 mps 715 mmHg 53%
    19:00 +30°C° 0 mm 1 mps 715 mmHg 55%
    20:00 +30°C° 0 mm 1 mps 716 mmHg 57%
    21:00 +29°C° 0 mm 1 mps 716 mmHg 59%
    22:00 +29°C° 0 mm 1 mps 716 mmHg 60%
    23:00 +28°C° 0 mm 1 mps 716 mmHg 61%

    21 Octubre, Domingo

    Tiempo Temperatura Precipitaciones Viento Presión Humedad
    00:00 +28°C° 0 mm 1 mps 716 mmHg 63%
    01:00 +27°C° 0 mm 1 mps 715 mmHg 66%
    02:00 +27°C° 0 mm 1 mps 715 mmHg 68%
    03:00 +26°C° 0 mm 2 mps 715 mmHg 71%
    04:00 +26°C° 0 mm 2 mps 715 mmHg 75%
    05:00 +25°C° 0 mm 1 mps 715 mmHg 78%
    06:00 +25°C° 0 mm 1 mps 715 mmHg 82%
    07:00 +27°C° 0 mm 2 mps 716 mmHg 74%
    08:00 +29°C° 0 mm 2 mps 717 mmHg 66%
    09:00 +32°C° 0 mm 2 mps 717 mmHg 58%
    10:00 +35°C° 0 mm 2 mps 717 mmHg 50%
    11:00 +36°C° 0 mm 1 mps 717 mmHg 42%
    12:00 +39°C° 0 mm 1 mps 716 mmHg 35%
    13:00 +39°C° 0 mm 1 mps 715 mmHg 32%
    14:00 +39°C° 0 mm 2 mps 715 mmHg 30%
    15:00 +38°C° 0 mm 2 mps 714 mmHg 27%
    16:00 +36°C° 0 mm 2 mps 714 mmHg 32%
    17:00 +34°C° 0 mm 2 mps 714 mmHg 36%
    18:00 +31°C° 0 mm 1 mps 714 mmHg 40%
    19:00 +30°C° 0 mm 2 mps 715 mmHg 44%
    20:00 +30°C° 0 mm 2 mps 715 mmHg 48%
    21:00 +29°C° 0 mm 2 mps 716 mmHg 52%
    22:00 +28°C° 0 mm 2 mps 715 mmHg 57%
    23:00 +28°C° 0 mm 2 mps 715 mmHg 63%

    22 Octubre, Lunes

    Tiempo Temperatura Precipitaciones Viento Presión Humedad
    00:00 +27°C° 0 mm 2 mps 715 mmHg 68%
    01:00 +26°C° 0 mm 2 mps 715 mmHg 71%
    02:00 +26°C° 0 mm 1 mps 714 mmHg 74%
    03:00 +26°C° 0 mm 1 mps 714 mmHg 77%
    04:00 +25°C° 0 mm 1 mps 714 mmHg 79%
    05:00 +25°C° 0 mm 1 mps 715 mmHg 81%
    06:00 +25°C° 0 mm 1 mps 715 mmHg 84%
    07:00 +27°C° 0 mm 2 mps 716 mmHg 75%
    08:00 +29°C° 0 mm 2 mps 716 mmHg 67%
    09:00 +31°C° 0 mm 2 mps 717 mmHg 59%
    10:00 +35°C° 0 mm 2 mps 716 mmHg 51%
    11:00 +36°C° 0 mm 1 mps 716 mmHg 43%
    12:00 +37°C° 0 mm 0 mps 715 mmHg 35%
    13:00 +40°C° 0 mm 1 mps 715 mmHg 31%
    14:00 +39°C° 0 mm 1 mps 714 mmHg 28%
    15:00 +39°C° 0 mm 2 mps 713 mmHg 24%
    16:00 +37°C° 0 mm 2 mps 713 mmHg 29%
    17:00 +35°C° 0 mm 2 mps 713 mmHg 33%
    18:00 +32°C° 0 mm 1 mps 714 mmHg 37%
    19:00 +31°C° 0 mm 1 mps 714 mmHg 41%
    20:00 +30°C° 0 mm 2 mps 714 mmHg 44%
    21:00 +29°C° 0 mm 2 mps 715 mmHg 48%
    22:00 +29°C° 0 mm 2 mps 715 mmHg 52%
    23:00 +28°C° 0 mm 2 mps 715 mmHg 56%
    Mostrar más